| time (UTC) | temp C | wind direction | speed KPH | gust KPH | rain 1hr cm | rain 24hr cm | rain mn cm | humidity % | barometer mb |
| 20260503224708 | 10 | 342 | 12.9 | 17.7 | 0.00 | 0.00 | 0.00 | 63 | 1007.1 |
| 20260503222708 | 11 | 330 | 9.7 | 11.3 | 0.00 | 0.00 | 0.00 | 66 | 1007.2 |
| 20260503220708 | 11 | 323 | 11.3 | 12.9 | 0.00 | 0.00 | 0.00 | 71 | 1007.3 |
| 20260503214707 | 11 | 313 | 8.0 | 9.7 | 0.00 | 0.00 | 0.00 | 75 | 1007.3 |
| 20260503212707 | 11 | 304 | 4.8 | 8.0 | 0.00 | 0.00 | 0.00 | 75 | 1007.3 |
| 20260503210708 | 10 | 326 | 4.8 | 9.7 | 0.00 | 0.00 | 0.00 | 79 | 1007.3 |
| 20260503204708 | 11 | 330 | 4.8 | 4.8 | 0.00 | 0.00 | 0.00 | 74 | 1007.4 |
| 20260503202707 | 11 | 316 | 3.2 | 6.4 | 0.00 | 0.00 | 0.00 | 82 | 1007.5 |
| 20260503200707 | 11 | 337 | 6.4 | 9.7 | 0.00 | 0.00 | 0.00 | 74 | 1007.6 |
| 20260503194707 | 11 | 331 | 3.2 | 6.4 | 0.00 | 0.00 | 0.00 | 84 | 1007.6 |
| 20260503192707 | 11 | 342 | 3.2 | 6.4 | 0.00 | 0.00 | 0.00 | 74 | 1007.6 |
| 20260503190707 | 11 | 330 | 4.8 | 8.0 | 0.00 | 0.00 | 0.00 | 71 | 1007.6 |
| 20260503184707 | 12 | 355 | 8.0 | 11.3 | 0.00 | 0.00 | 0.00 | 62 | 1007.5 |
| 20260503182707 | 12 | 15 | 3.2 | 6.4 | 0.00 | 0.00 | 0.00 | 67 | 1007.5 |
| 20260503180707 | 13 | 57 | 3.2 | 4.8 | 0.00 | 0.00 | 0.00 | 60 | 1007.4 |
| 20260503174707 | 13 | 28 | 4.8 | 9.7 | 0.00 | 0.00 | 0.00 | 55 | 1007.3 |
| 20260503172713 | 14 | 40 | 4.8 | 8.0 | 0.00 | 0.00 | 0.00 | 53 | 1007.4 |
| 20260503170707 | 14 | 341 | 3.2 | 6.4 | 0.00 | 0.00 | 0.00 | 53 | 1007.3 |
| 20260503150706 | 15 | 340 | 12.9 | 19.3 | 0.00 | 0.00 | 0.00 | 48 | 1007.4 |
| 20260503130706 | 16 | 301 | 16.1 | 24.1 | 0.00 | 0.00 | 0.00 | 46 | 1007.4 |
| 20260503110706 | 14 | 309 | 17.7 | 24.1 | 0.00 | 0.00 | 0.00 | 57 | 1007.6 |
| 20260503080705 | 12 | 276 | 4.8 | 9.7 | 0.00 | 0.00 | 0.00 | 65 | 1007.3 |
| 20260503072705 | 10 | 272 | 8.0 | 11.3 | 0.00 | 0.00 | 0.00 | 70 | 1007.0 |
| 20260503070705 | 10 | 288 | 11.3 | 12.9 | 0.00 | 0.00 | 0.00 | 72 | 1007.1 |
| 20260503054705 | 9 | 329 | 11.3 | 16.1 | 0.00 | 0.00 | 0.00 | 69 | 1006.2 |
| 20260503052705 | 9 | 296 | 9.7 | 14.5 | 0.00 | 0.00 | 0.00 | 73 | 1006.0 |
| 20260503050704 | 7 | 286 | 8.0 | 12.9 | 0.00 | 0.00 | 0.00 | 79 | 1005.9 |
| 20260503044704 | 7 | 283 | 9.7 | 14.5 | 0.00 | 0.00 | 0.00 | 82 | 1006.0 |
| 20260503042704 | 6 | 272 | 11.3 | 16.1 | 0.00 | 0.00 | 0.00 | 84 | 1005.9 |
| 20260503040704 | 6 | 285 | 9.7 | 11.3 | 0.00 | 0.00 | 0.00 | 85 | 1005.6 |
| 20260503034704 | 6 | 243 | 6.4 | 11.3 | 0.00 | 0.00 | 0.00 | 88 | 1005.3 |
| 20260503032704 | 5 | 244 | 9.7 | 11.3 | 0.00 | 0.00 | 0.00 | 89 | 1005.7 |
| 20260503030704 | 5 | 233 | 8.0 | 11.3 | 0.00 | 0.00 | 0.00 | 90 | 1005.6 |
| 20260503024704 | 5 | 241 | 6.4 | 8.0 | 0.00 | 0.00 | 0.00 | 87 | 1005.5 |
| 20260503022704 | 5 | 270 | 8.0 | 11.3 | 0.00 | 0.00 | 0.00 | 86 | 1005.7 |
| 20260503020704 | 6 | 218 | 12.9 | 14.5 | 0.00 | 0.00 | 0.00 | 85 | 1005.5 |
| 20260503014704 | 5 | 220 | 8.0 | 11.3 | 0.00 | 0.00 | 0.00 | 85 | 1005.5 |
| 20260503012704 | 5 | 239 | 9.7 | 11.3 | 0.00 | 0.00 | 0.00 | 84 | 1005.9 |
| 20260503010704 | 6 | 232 | 9.7 | 14.5 | 0.00 | 0.00 | 0.00 | 82 | 1005.7 |
| 20260503004704 | 6 | 212 | 11.3 | 16.1 | 0.00 | 0.00 | 0.00 | 80 | 1005.6 |
| 20260503002704 | 6 | 221 | 12.9 | 16.1 | 0.00 | 0.00 | 0.00 | 80 | 1006.0 |
| 20260503000704 | 6 | 224 | 12.9 | 16.1 | 0.00 | 0.00 | 0.00 | 80 | 1006.2 |
| 20260502234703 | 7 | 222 | 12.9 | 19.3 | 0.00 | 0.00 | 0.00 | 79 | 1006.5 |
| 20260502232703 | 7 | 223 | 12.9 | 17.7 | 0.00 | 0.00 | 0.00 | 79 | 1006.6 |
| 20260502230703 | 7 | 211 | 12.9 | 16.1 | 0.00 | 0.00 | 0.00 | 75 | 1006.7 |